Calypso, NC

12:10 PM EDT on July 23, 2016 (GMT -0400)
Duplin County

Weather History for KDPL - April, 2013

Change the Weather History Date:

Friday, April 12, 2013

  Actual Average (KGSB) Record (KGSB)
Temperature  
Mean Temperature 74 °F -  
Max Temperature 82 °F 72 °F 87 °F (2001)
Min Temperature 66 °F 50 °F 36 °F (2012)
Cooling Degree Days 9    
Growing Degree Days 24 (Base 50)    
Moisture  
Dew Point 66 °F    
Average Humidity 83    
Maximum Humidity 94    
Minimum Humidity 57    
Precipitation  
Precipitation 0.53 in - - ()
Sea Level Pressure  
Sea Level Pressure 29.77 in    
Wind  
Wind Speed 5 mph (South)    
Max Wind Speed 20 mph    
Max Gust Speed 25 mph    
Visibility 9 miles    
Events Rain    
Averages and records for this station are not official NWS values.
T = Trace of Precipitation, MM = Missing Value Source: NWS Daily Summary

Daily Weather History Graph

Daily Weather History Graph

Search for Another Location

Airport or City:

Trip Planner

Search our weather history database for the weather conditions in past years. The results will help you decide how hot, cold, wet, or windy it might be!

Date:

Astronomy

Apr. 12, 2013 Rise Set
Actual Time 6:43 AM EDT 7:42 PM EDT
Civil Twilight 6:17 AM EDT 8:08 PM EDT
Nautical Twilight 5:46 AM EDT 8:38 PM EDT
Astronomical Twilight 5:15 AM EDT 9:10 PM EDT
Moon 7:57 AM EDT (4/12) 10:05 PM EDT (4/12)
Length of Visible Light 13h 50m
Length of Day
12h 58m
Waxing Crescent, 5% of the Moon is Illuminated
Apr 12
Waxing Crescent
Apr 18
First Quarter
Apr 25
Full
May 2
Last Quarter
May 9
New

Hourly Weather History & Observations

Time (EDT) Temp. Heat Index Dew Point Humidity Pressure Visibility Wind Dir Wind Speed Gust Speed Precip Events Conditions
12:15 AM 70.3 °F - 65.3 °F 84% 29.88 in 10.0 mi South 4.6 mph - N/A   Overcast
12:35 AM 70.3 °F - 65.3 °F 84% 29.88 in 10.0 mi South 3.5 mph - N/A   Overcast
12:55 AM 70.7 °F - 65.5 °F 83% 29.87 in 10.0 mi SSE 4.6 mph - N/A   Overcast
1:15 AM 70.7 °F - 65.7 °F 84% 29.89 in 10.0 mi South 4.6 mph - N/A   Overcast
1:35 AM 70.3 °F - 65.5 °F 85% 29.87 in 10.0 mi Calm Calm - N/A   Overcast
1:55 AM 70.0 °F - 65.3 °F 85% 29.87 in 10.0 mi South 4.6 mph - N/A   Mostly Cloudy
2:15 AM 70.0 °F - 65.3 °F 85% 29.86 in 10.0 mi SSE 6.9 mph - N/A   Mostly Cloudy
2:35 AM 69.8 °F - 65.3 °F 86% 29.86 in 10.0 mi SSE 3.5 mph - N/A   Mostly Cloudy
2:55 AM 69.8 °F - 65.1 °F 85% 29.85 in 10.0 mi South 4.6 mph - N/A   Scattered Clouds
3:15 AM 69.4 °F - 64.8 °F 85% 29.84 in 10.0 mi South 4.6 mph - N/A   Scattered Clouds
3:35 AM 69.4 °F - 64.6 °F 84% 29.84 in 10.0 mi Calm Calm - N/A   Scattered Clouds
3:55 AM 69.4 °F - 64.4 °F 84% 29.83 in 10.0 mi South 4.6 mph - N/A   Scattered Clouds
4:15 AM 69.4 °F - 64.4 °F 84% 29.83 in 10.0 mi SSE 6.9 mph - N/A   Scattered Clouds
4:35 AM 69.8 °F - 64.4 °F 83% 29.82 in 10.0 mi South 4.6 mph - N/A   Mostly Cloudy
4:55 AM 69.8 °F - 64.4 °F 83% 29.81 in 10.0 mi SSE 6.9 mph - N/A   Scattered Clouds
5:15 AM 69.8 °F - 64.4 °F 83% 29.82 in 10.0 mi South 6.9 mph - N/A   Mostly Cloudy
5:35 AM 69.1 °F - 64.6 °F 86% 29.83 in 10.0 mi South 3.5 mph - N/A   Overcast
5:55 AM 69.6 °F - 64.2 °F 83% 29.84 in 10.0 mi South 6.9 mph - N/A   Overcast
6:15 AM 68.0 °F - 64.8 °F 89% 29.84 in 4.0 mi SSW 3.5 mph - 0.05 in Rain Heavy Rain
6:35 AM 67.1 °F - 64.6 °F 92% 29.80 in 5.0 mi SSE 4.6 mph - 0.09 in Rain Light Rain
6:55 AM 66.7 °F - 64.6 °F 93% 29.80 in 10.0 mi SE 6.9 mph - 0.09 in   Mostly Cloudy
7:15 AM 67.1 °F - 64.8 °F 92% 29.81 in 10.0 mi SSE 5.8 mph - N/A   Overcast
7:35 AM 67.3 °F - 64.8 °F 92% 29.80 in 10.0 mi SSE 10.4 mph - N/A   Overcast
7:55 AM 67.5 °F - 64.6 °F 90% 29.80 in 10.0 mi South 4.6 mph - N/A Rain Light Rain
8:15 AM 67.1 °F - 64.8 °F 92% 29.81 in 1.5 mi SSE 8.1 mph - 0.09 in Rain Heavy Rain
8:35 AM 66.9 °F - 64.9 °F 93% 29.82 in 1.8 mi South 8.1 mph - 0.20 in Rain Heavy Rain
8:55 AM 67.3 °F - 65.3 °F 93% 29.81 in 10.0 mi SSE 5.8 mph - 0.21 in   Mostly Cloudy
9:15 AM 67.8 °F - 65.5 °F 92% 29.81 in 7.0 mi SSE 4.6 mph - N/A   Mostly Cloudy
9:35 AM 68.2 °F - 65.8 °F 92% 29.80 in 7.0 mi South 5.8 mph - N/A   Overcast
9:55 AM 68.9 °F - 66.2 °F 91% 29.81 in 10.0 mi South 3.5 mph - N/A   Overcast
10:15 AM 69.1 °F - 66.6 °F 92% 29.80 in 10.0 mi SSE 4.6 mph - N/A   Overcast
10:35 AM 70.5 °F - 67.3 °F 89% 29.80 in 10.0 mi SSE 6.9 mph - N/A   Overcast
10:55 AM 71.6 °F - 67.5 °F 87% 29.80 in 10.0 mi South 5.8 mph - N/A   Overcast
11:15 AM 72.5 °F - 67.8 °F 85% 29.80 in 10.0 mi South 4.6 mph - N/A   Overcast
11:35 AM 74.7 °F - 68.5 °F 81% 29.80 in 10.0 mi South 6.9 mph - N/A   Overcast
11:55 AM 74.3 °F - 68.0 °F 81% 29.79 in 10.0 mi South 4.6 mph - N/A   Overcast
12:15 PM 74.8 °F - 67.6 °F 78% 29.78 in 10.0 mi South 6.9 mph - N/A   Overcast
12:35 PM 76.6 °F - 68.7 °F 76% 29.77 in 7.0 mi SSW 3.5 mph - N/A   Mostly Cloudy
12:55 PM 75.6 °F - 68.4 °F 78% 29.76 in 7.0 mi South 4.6 mph - N/A   Scattered Clouds
1:15 PM 79.0 °F - 69.1 °F 72% 29.75 in 10.0 mi SSW 4.6 mph - N/A   Scattered Clouds
1:35 PM 80.2 °F 82.8 °F 67.8 °F 66% 29.74 in 10.0 mi SSW 6.9 mph 17.3 mph N/A   Scattered Clouds
1:55 PM 79.7 °F - 67.5 °F 66% 29.73 in 10.0 mi SSW 6.9 mph - N/A   Mostly Cloudy
2:15 PM 81.9 °F 84.2 °F 66.6 °F 60% 29.72 in 10.0 mi SW 12.7 mph 20.7 mph N/A   Scattered Clouds
2:35 PM 81.9 °F 84.2 °F 66.6 °F 60% 29.71 in 10.0 mi SW 10.4 mph 18.4 mph N/A   Scattered Clouds
2:55 PM 82.4 °F 84.4 °F 65.8 °F 57% 29.70 in 10.0 mi SW 11.5 mph 24.2 mph N/A   Mostly Cloudy
3:15 PM 81.7 °F 83.6 °F 65.7 °F 58% 29.69 in 10.0 mi SW 12.7 mph 20.7 mph N/A   Mostly Cloudy
3:35 PM 81.0 °F 83.0 °F 65.7 °F 60% 29.69 in 10.0 mi SW 8.1 mph - N/A   Mostly Cloudy
3:55 PM 81.3 °F 83.2 °F 65.1 °F 58% 29.68 in 10.0 mi SW 5.8 mph 17.3 mph N/A   Mostly Cloudy
4:15 PM 79.9 °F - 65.3 °F 61% 29.67 in 10.0 mi SW 4.6 mph - N/A   Mostly Cloudy
4:35 PM 80.4 °F 82.3 °F 65.3 °F 60% 29.65 in 10.0 mi SSW 4.6 mph - N/A   Scattered Clouds
4:55 PM 72.0 °F - 65.8 °F 81% 29.72 in 7.0 mi SW 19.6 mph 25.3 mph 0.01 in Rain Rain
5:15 PM 68.4 °F - 65.7 °F 91% 29.69 in 1.8 mi SW 8.1 mph 19.6 mph 0.21 in Rain Light Rain
5:35 PM 71.6 °F - 67.8 °F 88% 29.69 in 10.0 mi Calm Calm - 0.22 in   Scattered Clouds
5:55 PM 73.2 °F - 68.4 °F 85% 29.70 in 7.0 mi SW 4.6 mph - 0.22 in   Scattered Clouds
6:15 PM 72.9 °F - 68.2 °F 85% 29.69 in 10.0 mi SSW 4.6 mph - N/A   Scattered Clouds
6:35 PM 73.4 °F - 68.7 °F 85% 29.70 in 10.0 mi Calm Calm - N/A   Clear
6:55 PM 72.5 °F - 68.2 °F 86% 29.70 in 10.0 mi South 4.6 mph - N/A   Clear
7:15 PM 71.2 °F - 67.1 °F 87% 29.70 in 7.0 mi South 4.6 mph - N/A   Clear
7:55 PM 69.8 °F - 66.2 °F 88% 29.72 in 10.0 mi SSW 3.5 mph - N/A   Clear
8:15 PM 69.8 °F - 66.6 °F 89% 29.71 in 10.0 mi Calm Calm - N/A   Clear
8:35 PM 69.3 °F - 66.7 °F 92% 29.72 in 10.0 mi Calm Calm - N/A   Clear
8:55 PM 69.1 °F - 66.7 °F 92% 29.72 in 10.0 mi Calm Calm - N/A   Clear
9:15 PM 68.9 °F - 66.4 °F 92% 29.72 in 10.0 mi Calm Calm - N/A   Clear
9:35 PM 68.5 °F - 66.2 °F 92% 29.74 in 7.0 mi Calm Calm - N/A   Clear
9:55 PM 68.4 °F - 66.2 °F 93% 29.74 in 7.0 mi Calm Calm - N/A   Clear
10:15 PM 68.4 °F - 66.2 °F 93% 29.74 in 10.0 mi SSW 3.5 mph - N/A   Clear
10:35 PM 68.2 °F - 66.2 °F 93% 29.75 in 7.0 mi Calm Calm - N/A   Scattered Clouds
10:55 PM 68.0 °F - 66.0 °F 93% 29.75 in 7.0 mi Calm Calm - N/A   Scattered Clouds
11:15 PM 68.0 °F - 66.0 °F 93% 29.76 in 7.0 mi SW 3.5 mph - N/A   Clear
11:35 PM 67.6 °F - 65.8 °F 94% 29.76 in 7.0 mi SW 6.9 mph - N/A   Clear
11:55 PM 68.0 °F - 66.2 °F 94% 29.77 in 7.0 mi SW 5.8 mph - N/A   Clear